FLOCK 4S-32 (47479 NORAD) Tracking and Keplerian Element Data
This shows tracking and keplerian element data for the satellite.
Feedback or suggestion? Click here.
Element | Value |
Catalog | 47479 |
Name | FLOCK 4S-32 |
Epoch Orbit | 1256 |
Epoch Day | 105.75340955 |
Epoch Year | 2021 |
RAAN | 167.9474 |
Inclination | 97.494 |
Eccentricity | 0.0007031 |
Argument of Perigee | 341.7932 |
Mean Anonmoly | 18.3046 |
Mean Motion | 15.11844624 |
Decay Rate | 2.102E-05 |
L1 | 1 47479U 21006BU 21105.75340955 .00002102 00000-0 12669-3 0 9999 |
L2 | 2 47479 97.4940 167.9474 0007031 341.7932 18.3046 15.11844624 12566 |
Live tracking and technical data element details for FLOCK 4S-32 (NORAD 47479). FLOCK 4S-32 can be tracked NOW for your location showing map with azimuth and elevation plus other details from your city location.
Track the satellite on the map from your city or location and see movement details for azimuth, elevation, latitude, longitude, range, height, and movement on the map or in text.
IsCatalogInMostPopularTable: catalog: 47479, numindb: 17
Update: records affected: 1
GetName: 47479 FLOCK 4S-32
Hit Count: updated at: Fri, 16 Apr 2021 10:46:04 GMT